Regional Weather Roundup
Issued by NWS

Home | Current Version | Previous Version | Text Only | Print | Product List | Glossary Off
Versions: 1 2 3 4 5 6 7 8 9 10 11 12 13 14 15 16 17 18 19 20 21 22 23 24 25 26 27 28 29 30 31 32 33 34 35 36 37 38 39 40 41 42 43 44 45 46 47 48 49 50

000
ASUS45 KBOU 190110
RWRCO

WEATHER ROUNDUP FOR COLORADO
NATIONAL WEATHER SERVICE DENVER/BOULDER CO
700 PM MDT WED APR 18 2018

NOTE: "FAIR" INDICATES FEW OR NO CLOUDS BELOW 12000 FEET WITH NO
SIGNIFICANT WEATHER AND/OR OBSTRUCTIONS TO VISIBILITY.

COZ001>005-013-030-031-190200-
...NORTHWEST COLORADO...

CITY           SKY/WX    TMP DP  RH WIND       PRES   REMARKS
CRAIG          FAIR      52  17  25 NE7       30.14F
HAYDEN         FAIR      49   9  19 CALM      30.16F
MEEKER         FAIR      53  13  20 NE7       30.10F
RANGELY        FAIR      54  12  19 NE5       30.09F
RABBIT EARS PA FAIR      30   5  34 SE3       30.24S
STEAMBOAT SPGS FAIR      49  13  24 NW3       30.15F
WALDEN         FAIR      43  -2  15 CALM      30.21S
$$

COZ006>008-011-190200-
...WEST CENTRAL VALLEYS...

CITY           SKY/WX    TMP DP  RH WIND       PRES   REMARKS
GRAND JUNCTION FAIR      57   7  13 W7        30.08F
MONTROSE       FAIR      55  -7   7 NW6       30.11F
EAGLE          FAIR      53  10  18 W3        30.14F
RIFLE          FAIR      56  10  16 CALM      30.09F
DELTA          FAIR      63   3   9 SW6       30.08F
NUCLA          FAIR      57  -6   7 W8        30.13S
$$

COZ017>023-064>068-190200-
...SOUTHWEST COLORADO...

CITY           SKY/WX    TMP DP  RH WIND       PRES   REMARKS
DURANGO        FAIR      55 -11   6 SE6       30.15F
CORTEZ         FAIR      58 -19   4 SW13      30.12S
PAGOSA SPRINGS FAIR      55 -16   5 W6        30.21R
TELLURIDE      FAIR      47   2  15 W5        30.20S
WOLF CREEK PAS FAIR      32  -2  23 S15G22    30.37S WCI  22
$$

COZ009-010-012-014-032>034-037-058>063-190200-
...CENTRAL COLORADO...

CITY           SKY/WX    TMP DP  RH WIND       PRES   REMARKS
ASPEN          FAIR      50   9  19 NW7       30.13R
BUENA VISTA    FAIR      51  -6   9 SE18G24   30.17R
COPPER MTN     NOT AVBL
BERTHOUD PASS  FAIR      18   9  68 SE10G25   30.29F WCI   6
COTTONWOOD PAS FAIR      46 -13   8 SE21G29   30.22R
GUNNISON       FAIR      53   5  14 SW5       30.13R
GRANBY         FAIR      45   2  16 NE5       30.20S
KREMMLING      FAIR      54   3  13 NW3       30.17F
LEADVILLE      FAIR      41   8  25 S14       30.20R
MONARCH PASS   FAIR      32   1  27 S12       30.41S WCI  23
SALIDA         FAIR      52  -2  11 E21G31    30.25R
SUNLIGHT       FAIR      32   9  37 CALM      30.28S
WILKERSON PASS FAIR      32  -9  16 CALM      30.33S
$$

COZ069>075-190200-
...SAN LUIS VALLEY/SANGRE DE CRISTO MOUNTAINS...

CITY           SKY/WX    TMP DP  RH WIND       PRES   REMARKS
ALAMOSA        FAIR      57  -7   7 SW18      30.14S
DEL NORTE      FAIR      53   2  12 NE8       30.18S
LA VETA PASS   FAIR      34   5  29 N16G23    30.40S WCI  23
SAGUACHE       NOT AVBL
$$

COZ035-036-038>040-190200-
...NORTHERN COLORADO FRONT RANGE...

CITY           SKY/WX    TMP DP  RH WIND       PRES   REMARKS
DENVER INTL AP FAIR      52  11  19 E12       30.21R
AURORA         PTCLDY    51   9  18 E9        30.22R
FRONT RANGE AP PTCLDY    54   9  16 NE8G17    30.23R
ERIE MUNI ARPT FAIR      54   6  14 E6        30.26R
BOULDER MUN AP FAIR      54  10  17 E6        30.20S
CENTENNIAL     FAIR      50  10  20 E12       30.22R
BROOMFIELD     PTCLDY    52   9  17 E9        30.22S
FORT COLLINS   FAIR      54  12  18 SE7       30.21R
LONGMONT       FAIR      54  13  19 E6        30.22R
$$

COZ041-046-047-076>085-087-088-190200-
...PIKES PEAK/PALMER DIVIDE AND SOUTHERN FOOTHILLS...

CITY           SKY/WX    TMP DP  RH WIND       PRES   REMARKS
COLO. SPRINGS  FAIR      51  -3  10 S12       30.23R
A. F. ACADEMY  FAIR      50  -7   9 SE21      30.22R
SCHRIEVER AFB  NOT AVBL
CHEYENNE MTN   FAIR      46  -3  13 S15G23    30.19R
ELLICOTT         N/A    N/A N/A N/A SE9       30.23R
FALCON         FAIR      48  -5  10 S13       30.26R
FORT CARSON    FAIR      53  -4   9 SE14      30.21R
LIMON          FAIR      49  11  21 NE10      30.24R
MONUMENT HILL  FAIR      43   5  21 E12       30.25S
CANON CITY     FAIR      55   1  11 E10G23    30.20R
WALSENBURG     NOT AVBL
TRINIDAD       FAIR      54   2  12 E13       30.21R
$$

COZ042>045-048>051-090-091-190200-
...NORTHEAST COLORADO...

CITY           SKY/WX    TMP DP  RH WIND       PRES   REMARKS
GREELEY ARPT   FAIR      55  10  16 E6        30.21R
AKRON          FAIR      49  20  31 NE14      30.22F
BURLINGTON     FAIR      52  18  26 N13       30.23S
WRAY           FAIR      54  19  26 N12       30.23R
YUMA           FAIR      50  19  29 N7        30.23S
STERLING       FAIR      52  19  28 N7        30.22R
HOLYOKE        FAIR      55  21  26 N13       30.23R
FORT MORGAN    FAIR      52  11  19 NE10      30.23R
$$

COZ086-089-092>099-190200-
...SOUTHEAST COLORADO...

CITY           SKY/WX    TMP DP  RH WIND       PRES   REMARKS
PUEBLO         FAIR      59   3  10 SE14      30.19S
LA JUNTA       FAIR      59   3  10 NE9       30.21R
LAMAR          FAIR      59  10  14 NE10      30.20R
SPRINGFIELD      N/A     53   6  15 NE10      30.23S
$$



USA.gov is the U.S. government's official web portal to all federal, state and local government web resources and services.